EW7152 Weather Reports


Display with metric or nautical units.
time (UTC)temp
F
wind
direction
speed
MPH
gust
MPH
rain 1hr
in
rain 24hr
in
rain mn
in
humidity
%
barometer
mb
20260505034616 58 241 0.0 3.0 0.35 0.36 0.36 88 1015.7
20260505033014 58 239 1.0 4.0 0.33 0.35 0.35 90 1016.0
20260505031511 59 214 1.0 3.0 0.17 0.19 0.19 89 1016.0
20260505030014 61 282 0.0 4.0 0.05 0.06 0.06 88 1015.9
20260505024508 61 310 1.0 4.0 0.01 0.02 0.02 86 1015.9
20260505023006 61 299 1.0 9.0 0.01 0.02 0.02 86 1016.1
20260505021506 61 282 1.0 4.0 0.01 0.02 0.02 86 1016.2
20260505020008 61 295 2.0 6.0 0.01 0.02 0.02 85 1016.2
20260505014504 62 232 2.0 8.0 0.00 0.01 0.01 83 1016.5
20260505013003 62 321 2.0 7.0 0.00 0.01 0.01 84 1016.6
20260505011502 62 262 3.0 8.0 0.00 0.01 0.01 83 1016.7
20260505010002 63 253 2.0 8.0 0.00 0.01 0.01 82 1016.8
20260505004602 62 256 3.0 7.0 0.00 0.01 0.01 83 1016.8
20260505003057 61 255 2.0 5.0 0.00 0.01 0.01 84 1016.9
20260505001555 60 253 2.0 8.0 0.00 0.01 0.01 85 1017.3
20260505000100 59 279 3.0 9.0 0.00 0.01 0.01 85 1017.3
20260504234557 58 255 3.0 7.0 0.00 0.01 0.01 84 1017.3
20260504233044 57 313 3.0 6.0 0.00 0.01 0.01 89 1017.3
20260504231542 57 214 1.0 5.0 0.00 0.01 0.01 91 1017.3
20260504230036 56 268 0.0 3.0 0.00 0.01 0.01 91 1017.3
20260504224536 55 270 1.0 4.0 0.00 0.01 0.01 90 1017.3
20260504223032 55 284 1.0 3.0 0.00 0.01 0.01 91 1017.3
20260504221529 54 251 0.0 2.0 0.00 0.01 0.01 91 1017.9
20260504220041 53 251 0.0 3.0 0.00 0.01 0.01 90 1017.9
20260504214524 53 248 0.0 2.0 0.00 0.01 0.01 90 1017.8
20260504213021 52 216 0.0 2.0 0.00 0.01 0.01 89 1017.7
20260504211519 51 209 0.0 0.0 0.00 0.01 0.01 88 1017.8
20260504210017 50 210 0.0 0.0 0.00 0.01 0.01 86 1017.6
20260504204521 50 209 0.0 0.0 0.00 0.01 0.01 86 1017.3
20260504203015 50 209 0.0 0.0 0.00 0.01 0.01 86 1017.5
20260504201515 49 209 0.0 0.0 0.01 0.01 0.01 85 1017.4
20260504200014 49 209 0.0 0.0 0.01 0.01 0.01 85 1017.4
20260504194514 49 209 0.0 0.0 0.01 0.01 0.01 85 1017.4
20260504193012 48 209 0.0 0.0 0.01 0.01 0.01 85 1017.3
20260504191510 48 209 0.0 0.0 0.00 0.00 0.00 84 1017.1
20260504190012 47 209 0.0 0.0 0.00 0.00 0.00 85 1017.0
20260504184508 47 209 0.0 0.0 0.00 0.00 0.00 85 1017.0
20260504183007 47 209 0.0 0.0 0.00 0.00 0.00 85 1016.8
20260504181507 47 209 0.0 0.0 0.00 0.00 0.00 85 1016.9
20260504180006 46 209 0.0 0.0 0.00 0.00 0.00 85 1016.7
20260504174505 46 210 0.0 0.0 0.00 0.00 0.00 85 1016.4
20260504173004 46 210 0.0 0.0 0.00 0.00 0.00 86 1016.5
20260504171506 46 209 0.0 0.0 0.00 0.00 0.00 86 1016.4
20260504081520 63 230 0.0 1.0 0.00 0.01 0.01 68 1017.0
20260504050012 71 297 2.0 8.0 0.00 0.01 0.01 49 1016.0
20260504044512 72 282 2.0 4.0 0.00 0.01 0.01 48 1015.9
20260504043019 73 298 2.0 7.0 0.00 0.01 0.01 48 1016.0
20260504041510 73 304 3.0 9.0 0.00 0.01 0.01 47 1016.1
20260504040017 74 256 2.0 8.0 0.00 0.01 0.01 46 1016.0